Time,TemperatureF,DewpointF,PressureIn,WindDirection,WindDirectionDegrees,WindSpeedMPH,WindSpeedGustMPH,Humidity,HourlyPrecipIn,Conditions,Clouds,dailyrainin,SolarRadiationWatts/m^2,SoftwareType,DateUTC
2013-12-02 00:01:00,20.5,20.2,29.93,NE,46,0.0,0.0,99,0.00,CLR,,0.00,0.0,WeatherDisplay:10.37,2013-12-02 06:01:00,
2013-12-02 00:06:00,20.5,20.2,29.93,NE,46,0.0,0.0,99,0.00,CLR,,0.00,0.0,WeatherDisplay:10.37,2013-12-02 06:06:00,
2013-12-02 00:11:00,20.1,19.9,29.93,NE,46,0.0,0.0,99,0.00,CLR,,0.00,0.0,WeatherDisplay:10.37,2013-12-02 06:11:00,
2013-12-02 00:16:00,19.9,19.7,29.93,NE,46,0.0,0.0,99,0.00,CLR,,0.00,0.0,WeatherDisplay:10.37,2013-12-02 06:16:00,
2013-12-02 00:21:00,19.8,19.5,29.93,NE,46,0.0,0.0,99,0.00,CLR,,0.00,0.0,WeatherDisplay:10.37,2013-12-02 06:21:00,
2013-12-02 00:26:00,19.9,19.7,29.93,NE,46,0.0,0.0,99,0.00,CLR,,0.00,0.0,WeatherDisplay:10.37,2013-12-02 06:26:00,
2013-12-02 00:31:00,19.8,19.5,29.93,NE,46,0.0,0.0,99,0.00,CLR,,0.00,0.0,WeatherDisplay:10.37,2013-12-02 06:31:00,
2013-12-02 00:36:00,19.4,19.2,29.93,NE,46,0.0,0.0,99,0.00,CLR,,0.00,0.0,WeatherDisplay:10.37,2013-12-02 06:36:00,
2013-12-02 00:41:00,19.2,19.0,29.93,NE,46,0.0,0.0,99,0.00,CLR,,0.00,0.0,WeatherDisplay:10.37,2013-12-02 06:41:00,
2013-12-02 00:46:00,19.0,18.8,29.93,NE,46,0.0,0.0,99,0.00,CLR,,0.00,0.0,WeatherDisplay:10.37,2013-12-02 06:46:00,
2013-12-02 00:51:00,19.0,19.0,29.93,NE,46,0.0,0.0,100,0.00,CLR,,0.00,0.0,WeatherDisplay:10.37,2013-12-02 06:51:00,
2013-12-02 00:56:00,19.4,19.4,29.93,NE,46,0.0,0.0,100,0.00,CLR,,0.00,0.0,WeatherDisplay:10.37,2013-12-02 06:56:00,
2013-12-02 01:01:00,19.4,19.4,29.93,NE,46,0.0,0.0,100,0.00,CLR,,0.00,0.0,WeatherDisplay:10.37,2013-12-02 07:01:00,
2013-12-02 01:06:00,19.4,19.4,29.93,NE,46,0.0,0.0,100,0.00,CLR,,0.00,0.0,WeatherDisplay:10.37,2013-12-02 07:06:00,
2013-12-02 01:11:00,19.2,19.2,29.93,NE,46,0.0,0.0,100,0.00,CLR,,0.00,0.0,WeatherDisplay:10.37,2013-12-02 07:11:00,
2013-12-02 01:16:00,19.0,19.0,29.93,NE,46,0.0,0.0,100,0.00,CLR,,0.00,0.0,WeatherDisplay:10.37,2013-12-02 07:16:00,
2013-12-02 01:21:00,18.9,18.9,29.93,NE,46,0.0,0.0,100,0.00,CLR,,0.00,0.0,WeatherDisplay:10.37,2013-12-02 07:21:00,
2013-12-02 01:26:00,18.7,18.7,29.93,NE,46,0.0,0.0,100,0.00,CLR,,0.00,0.0,WeatherDisplay:10.37,2013-12-02 07:26:00,
2013-12-02 01:31:00,18.5,18.5,29.93,NE,46,0.0,0.0,100,0.00,CLR,,0.00,0.0,WeatherDisplay:10.37,2013-12-02 07:31:00,
2013-12-02 01:36:00,18.3,18.3,29.93,NE,46,0.0,0.0,100,0.00,CLR,,0.00,0.0,WeatherDisplay:10.37,2013-12-02 07:36:00,
2013-12-02 01:41:00,18.3,18.3,29.93,NE,46,0.0,0.0,100,0.00,CLR,,0.00,0.0,WeatherDisplay:10.37,2013-12-02 07:41:00,
2013-12-02 01:46:00,18.3,18.3,29.93,NE,46,0.0,0.0,100,0.00,CLR,,0.00,0.0,WeatherDisplay:10.37,2013-12-02 07:46:00,
2013-12-02 01:51:00,18.1,18.1,29.93,NE,46,0.0,0.0,100,0.00,CLR,,0.00,0.0,WeatherDisplay:10.37,2013-12-02 07:51:00,
2013-12-02 01:56:00,17.8,17.8,29.93,NE,46,0.0,0.0,100,0.00,CLR,,0.00,0.0,WeatherDisplay:10.37,2013-12-02 07:56:00,
2013-12-02 02:01:00,18.0,18.0,29.93,NE,46,0.0,0.0,100,0.00,CLR,,0.00,0.0,WeatherDisplay:10.37,2013-12-02 08:01:00,
2013-12-02 02:06:00,18.3,18.3,29.93,NE,46,0.0,0.0,100,0.00,CLR,,0.00,0.0,WeatherDisplay:10.37,2013-12-02 08:06:00,
2013-12-02 02:11:00,18.3,18.3,29.93,NE,46,0.0,0.0,100,0.00,CLR,,0.00,0.0,WeatherDisplay:10.37,2013-12-02 08:11:00,
2013-12-02 02:16:00,18.3,18.3,29.93,NE,46,0.0,0.0,100,0.00,CLR,,0.00,0.0,WeatherDisplay:10.37,2013-12-02 08:16:00,
2013-12-02 02:21:00,18.3,18.3,29.93,NE,46,0.0,0.0,100,0.00,CLR,,0.00,0.0,WeatherDisplay:10.37,2013-12-02 08:21:00,
2013-12-02 02:26:00,18.3,18.3,29.93,NE,46,0.0,0.0,100,0.00,CLR,,0.00,0.0,WeatherDisplay:10.37,2013-12-02 08:26:00,
2013-12-02 02:31:00,18.1,18.1,29.93,NE,46,0.0,0.0,100,0.00,CLR,,0.00,0.0,WeatherDisplay:10.37,2013-12-02 08:31:00,
2013-12-02 02:36:00,17.8,17.8,29.93,NE,46,0.0,0.0,100,0.00,CLR,,0.00,0.0,WeatherDisplay:10.37,2013-12-02 08:36:00,
2013-12-02 02:41:00,17.6,17.6,29.93,NE,46,0.0,0.0,100,0.00,CLR,,0.00,0.0,WeatherDisplay:10.37,2013-12-02 08:41:00,
2013-12-02 02:46:00,17.4,17.4,29.93,NE,46,0.0,0.0,100,0.00,CLR,,0.00,0.0,WeatherDisplay:10.37,2013-12-02 08:46:00,
2013-12-02 02:51:00,17.2,17.2,29.93,NE,46,0.0,0.0,100,0.00,CLR,,0.00,0.0,WeatherDisplay:10.37,2013-12-02 08:51:00,
2013-12-02 02:56:00,17.6,17.6,29.90,NE,46,0.0,0.0,100,0.00,CLR,,0.00,0.0,WeatherDisplay:10.37,2013-12-02 08:56:00,
2013-12-02 03:01:00,17.6,17.6,29.90,NE,46,0.0,0.0,100,0.00,CLR,,0.00,0.0,WeatherDisplay:10.37,2013-12-02 09:01:00,
2013-12-02 03:06:00,17.6,17.6,29.90,NE,46,0.0,0.0,100,0.00,CLR,,0.00,0.0,WeatherDisplay:10.37,2013-12-02 09:06:00,
2013-12-02 03:11:00,18.0,18.0,29.90,NE,46,0.0,0.0,100,0.00,CLR,,0.00,0.0,WeatherDisplay:10.37,2013-12-02 09:11:00,
2013-12-02 03:16:00,18.1,18.1,29.90,NE,46,0.0,0.0,100,0.00,CLR,,0.00,0.0,WeatherDisplay:10.37,2013-12-02 09:16:00,
2013-12-02 03:21:00,18.1,18.1,29.90,NE,46,0.0,0.0,100,0.00,CLR,,0.00,0.0,WeatherDisplay:10.37,2013-12-02 09:21:00,
2013-12-02 03:26:00,18.0,18.0,29.90,NE,46,0.0,0.0,100,0.00,CLR,,0.00,0.0,WeatherDisplay:10.37,2013-12-02 09:26:00,
2013-12-02 03:31:00,18.1,18.1,29.90,NE,46,0.0,0.0,100,0.00,CLR,,0.00,0.0,WeatherDisplay:10.37,2013-12-02 09:31:00,
2013-12-02 03:36:00,18.1,18.1,29.90,NE,46,0.0,0.0,100,0.00,CLR,,0.00,0.0,WeatherDisplay:10.37,2013-12-02 09:36:00,
2013-12-02 03:41:00,18.0,18.0,29.90,NE,46,0.0,0.0,100,0.00,CLR,,0.00,0.0,WeatherDisplay:10.37,2013-12-02 09:41:00,
2013-12-02 03:46:00,17.8,17.8,29.90,NE,46,0.0,0.0,100,0.00,CLR,,0.00,0.0,WeatherDisplay:10.37,2013-12-02 09:46:00,
2013-12-02 03:51:00,17.8,17.8,29.90,NE,46,0.0,0.0,100,0.00,CLR,,0.00,0.0,WeatherDisplay:10.37,2013-12-02 09:51:00,
2013-12-02 03:56:00,17.6,17.6,29.90,NE,46,0.0,0.0,100,0.00,CLR,,0.00,0.0,WeatherDisplay:10.37,2013-12-02 09:56:00,
2013-12-02 04:01:00,17.6,17.6,29.90,NE,46,0.0,0.0,100,0.00,CLR,,0.00,0.0,WeatherDisplay:10.37,2013-12-02 10:01:00,
2013-12-02 04:06:00,17.4,17.4,29.90,NE,46,0.0,0.0,100,0.00,CLR,,0.00,0.0,WeatherDisplay:10.37,2013-12-02 10:06:00,
2013-12-02 04:11:00,17.6,17.6,29.90,NE,46,0.0,0.0,100,0.00,CLR,,0.00,0.0,WeatherDisplay:10.37,2013-12-02 10:11:00,
2013-12-02 04:16:00,17.8,17.8,29.90,NE,46,0.0,0.0,100,0.00,CLR,,0.00,0.0,WeatherDisplay:10.37,2013-12-02 10:16:00,
2013-12-02 04:21:00,17.8,17.8,29.90,NE,46,0.0,0.0,100,0.00,CLR,,0.00,0.0,WeatherDisplay:10.37,2013-12-02 10:21:00,
2013-12-02 04:26:00,18.0,18.0,29.88,NE,46,0.0,0.0,100,0.00,CLR,,0.00,0.0,WeatherDisplay:10.37,2013-12-02 10:26:00,
2013-12-02 04:31:00,18.0,18.0,29.88,NE,46,0.0,0.0,100,0.00,CLR,,0.00,0.0,WeatherDisplay:10.37,2013-12-02 10:31:00,
2013-12-02 04:36:00,18.3,18.3,29.88,NE,46,0.0,0.0,100,0.00,CLR,,0.00,0.0,WeatherDisplay:10.37,2013-12-02 10:36:00,
2013-12-02 04:41:00,18.3,18.3,29.90,NE,46,0.0,0.0,100,0.00,CLR,,0.00,0.0,WeatherDisplay:10.37,2013-12-02 10:41:00,
2013-12-02 04:46:00,18.3,18.3,29.90,NE,46,0.0,0.0,100,0.00,CLR,,0.00,0.0,WeatherDisplay:10.37,2013-12-02 10:46:00,
2013-12-02 04:51:00,18.7,18.7,29.90,NE,46,0.0,0.0,100,0.00,CLR,,0.00,0.0,WeatherDisplay:10.37,2013-12-02 10:51:00,
2013-12-02 04:56:00,19.0,19.0,29.88,NE,46,0.0,0.0,100,0.00,CLR,,0.00,0.0,WeatherDisplay:10.37,2013-12-02 10:56:00,
2013-12-02 05:01:00,19.0,19.0,29.88,NE,46,0.0,0.0,100,0.00,CLR,,0.00,0.0,WeatherDisplay:10.37,2013-12-02 11:01:00,
2013-12-02 05:06:00,19.0,19.0,29.88,NE,46,0.0,0.0,100,0.00,CLR,,0.00,0.0,WeatherDisplay:10.37,2013-12-02 11:06:00,
2013-12-02 05:11:00,19.0,19.0,29.88,NE,46,0.0,0.0,100,0.00,CLR,,0.00,0.0,WeatherDisplay:10.37,2013-12-02 11:11:00,
2013-12-02 05:16:00,19.0,19.0,29.88,NE,46,0.0,0.0,100,0.00,CLR,,0.00,0.0,WeatherDisplay:10.37,2013-12-02 11:16:00,
2013-12-02 05:21:00,19.2,19.2,29.88,NE,46,0.0,0.0,100,0.00,CLR,,0.00,0.0,WeatherDisplay:10.37,2013-12-02 11:21:00,
2013-12-02 05:26:00,19.6,19.6,29.88,NE,46,0.0,0.0,100,0.00,CLR,,0.00,0.0,WeatherDisplay:10.37,2013-12-02 11:26:00,
2013-12-02 05:31:00,19.9,19.9,29.88,NE,46,0.0,0.0,100,0.00,CLR,,0.00,0.0,WeatherDisplay:10.37,2013-12-02 11:31:00,
2013-12-02 05:36:00,20.5,20.5,29.88,NE,46,0.0,0.0,100,0.00,CLR,,0.00,0.0,WeatherDisplay:10.37,2013-12-02 11:36:00,
2013-12-02 05:41:00,21.0,21.0,29.88,NE,46,0.0,0.0,100,0.00,CLR,,0.00,0.0,WeatherDisplay:10.37,2013-12-02 11:41:00,
2013-12-02 05:46:00,21.6,21.6,29.88,NE,46,0.0,0.0,100,0.00,CLR,,0.00,0.0,WeatherDisplay:10.37,2013-12-02 11:46:00,
2013-12-02 05:51:00,21.7,21.7,29.88,NE,46,0.0,0.0,100,0.00,CLR,,0.00,0.0,WeatherDisplay:10.37,2013-12-02 11:51:00,
2013-12-02 05:56:00,21.9,21.9,29.88,NE,46,0.0,0.0,100,0.00,CLR,,0.00,0.0,WeatherDisplay:10.37,2013-12-02 11:56:00,
2013-12-02 06:01:00,22.1,22.1,29.88,NE,46,0.0,0.0,100,0.00,SCT,,0.00,0.0,WeatherDisplay:10.37,2013-12-02 12:01:00,
2013-12-02 06:06:00,22.3,22.3,29.88,NE,46,0.0,0.0,100,0.00,SCT,,0.00,0.0,WeatherDisplay:10.37,2013-12-02 12:06:00,
2013-12-02 06:11:00,22.3,22.3,29.88,NE,46,0.0,0.0,100,0.00,SCT,,0.00,0.0,WeatherDisplay:10.37,2013-12-02 12:11:00,
2013-12-02 06:16:00,22.3,22.3,29.88,NE,46,0.0,0.0,100,0.00,SCT,,0.00,0.0,WeatherDisplay:10.37,2013-12-02 12:16:00,
2013-12-02 06:21:00,22.5,22.5,29.88,NE,46,0.0,0.0,100,0.00,SCT,,0.00,0.0,WeatherDisplay:10.37,2013-12-02 12:21:00,
2013-12-02 06:26:00,22.8,22.8,29.88,NE,46,0.0,0.0,100,0.00,SCT,,0.00,0.0,WeatherDisplay:10.37,2013-12-02 12:26:00,
2013-12-02 06:31:00,23.2,23.2,29.88,NE,46,0.0,0.0,100,0.00,SCT,,0.00,0.0,WeatherDisplay:10.37,2013-12-02 12:31:00,
2013-12-02 06:36:00,23.5,23.5,29.88,NE,46,0.0,0.0,100,0.00,SCT,,0.00,0.0,WeatherDisplay:10.37,2013-12-02 12:36:00,
2013-12-02 06:41:00,23.7,23.7,29.88,NE,46,0.0,0.0,100,0.00,SCT,,0.00,0.0,WeatherDisplay:10.37,2013-12-02 12:41:00,
2013-12-02 06:46:00,23.7,23.7,29.88,NE,46,0.0,0.0,100,0.00,SCT,,0.00,0.0,WeatherDisplay:10.37,2013-12-02 12:46:00,
2013-12-02 06:51:00,23.7,23.7,29.88,NE,46,0.0,0.0,100,0.00,SCT,,0.00,0.0,WeatherDisplay:10.37,2013-12-02 12:51:00,
2013-12-02 06:56:00,23.7,23.7,29.88,NE,46,0.0,0.0,100,0.00,SCT,,0.00,0.0,WeatherDisplay:10.37,2013-12-02 12:56:00,
2013-12-02 07:01:00,23.5,23.5,29.88,NE,46,0.0,0.0,100,0.00,CLR,,0.00,0.0,WeatherDisplay:10.37,2013-12-02 13:01:00,
2013-12-02 07:06:00,23.4,23.4,29.88,NE,46,0.0,0.0,100,0.00,CLR,,0.00,0.0,WeatherDisplay:10.37,2013-12-02 13:06:00,
2013-12-02 07:11:00,23.4,23.4,29.88,NE,46,0.0,0.0,100,0.00,CLR,,0.00,0.0,WeatherDisplay:10.37,2013-12-02 13:11:00,
2013-12-02 07:16:00,23.4,23.4,29.88,NE,46,0.0,0.0,100,0.00,CLR,,0.00,0.0,WeatherDisplay:10.37,2013-12-02 13:16:00,
2013-12-02 07:21:00,23.4,23.4,29.88,NE,46,0.0,0.0,100,0.00,CLR,,0.00,0.2,WeatherDisplay:10.37,2013-12-02 13:21:00,
2013-12-02 07:26:00,23.5,23.5,29.88,NE,46,0.0,0.0,100,0.00,CLR,,0.00,0.6,WeatherDisplay:10.37,2013-12-02 13:26:00,
2013-12-02 07:31:00,23.7,23.7,29.88,NE,46,0.0,0.0,100,0.00,CLR,,0.00,1.0,WeatherDisplay:10.37,2013-12-02 13:31:00,
2013-12-02 07:36:00,24.1,24.1,29.88,NE,46,0.0,0.0,100,0.00,CLR,,0.00,1.4,WeatherDisplay:10.37,2013-12-02 13:36:00,
2013-12-02 07:41:00,24.6,24.6,29.88,NE,46,0.0,0.0,100,0.00,BKN,,0.00,1.7,WeatherDisplay:10.37,2013-12-02 13:41:00,
2013-12-02 07:46:00,25.2,25.2,29.88,NE,46,0.0,0.0,100,0.00,BKN,,0.00,2.0,WeatherDisplay:10.37,2013-12-02 13:46:00,
2013-12-02 07:51:00,25.7,25.7,29.88,NE,46,0.0,0.0,100,0.00,OVC,,0.00,2.2,WeatherDisplay:10.37,2013-12-02 13:51:00,
2013-12-02 07:56:00,26.1,26.1,29.88,NE,46,0.0,0.0,100,0.00,OVC,,0.00,2.4,WeatherDisplay:10.37,2013-12-02 13:56:00,
2013-12-02 08:01:00,26.2,26.2,29.88,NE,46,0.0,0.0,100,0.00,OVC,,0.00,2.6,WeatherDisplay:10.37,2013-12-02 14:01:00,
2013-12-02 08:06:00,26.4,26.4,29.88,NE,46,0.0,0.0,100,0.00,OVC,,0.00,2.9,WeatherDisplay:10.37,2013-12-02 14:06:00,
2013-12-02 08:11:00,26.6,26.6,29.88,NE,46,0.0,0.0,100,0.00,OVC,,0.00,3.1,WeatherDisplay:10.37,2013-12-02 14:11:00,
2013-12-02 08:16:00,27.0,27.0,29.88,NE,46,0.0,0.0,100,0.00,OVC,,0.00,3.1,WeatherDisplay:10.37,2013-12-02 14:16:00,
2013-12-02 08:21:00,27.1,27.1,29.88,NE,46,0.0,0.0,100,0.00,OVC,,0.00,3.3,WeatherDisplay:10.37,2013-12-02 14:21:00,
2013-12-02 08:26:00,27.3,27.3,29.88,NE,46,0.0,0.0,100,0.00,OVC,,0.00,3.4,WeatherDisplay:10.37,2013-12-02 14:26:00,
2013-12-02 08:31:00,27.7,27.7,29.88,NE,46,0.0,0.0,100,0.00,OVC,,0.00,3.4,WeatherDisplay:10.37,2013-12-02 14:31:00,
2013-12-02 08:36:00,28.0,28.0,29.88,NE,46,0.0,0.0,100,0.00,OVC,,0.00,3.4,WeatherDisplay:10.37,2013-12-02 14:36:00,
2013-12-02 08:41:00,28.4,28.4,29.88,NE,46,0.0,0.0,100,0.00,OVC,,0.00,3.4,WeatherDisplay:10.37,2013-12-02 14:41:00,
2013-12-02 08:46:00,28.6,28.6,29.88,NE,46,23.0,0.0,100,0.00,OVC,,0.00,3.3,WeatherDisplay:10.37,2013-12-02 14:46:00,
2013-12-02 08:51:00,28.8,28.8,29.88,NE,46,0.0,0.0,100,0.00,OVC,,0.00,3.3,WeatherDisplay:10.37,2013-12-02 14:51:00,
2013-12-02 08:56:00,29.1,29.1,29.88,NE,46,0.0,0.0,100,0.00,OVC,,0.00,3.3,WeatherDisplay:10.37,2013-12-02 14:56:00,
2013-12-02 09:01:00,29.3,29.3,29.88,NE,46,0.0,0.0,100,0.00,OVC,,0.00,3.2,WeatherDisplay:10.37,2013-12-02 15:01:00,
2013-12-02 09:06:00,29.5,29.5,29.88,NE,46,0.0,0.0,100,0.00,OVC,,0.00,3.0,WeatherDisplay:10.37,2013-12-02 15:06:00,
2013-12-02 09:11:00,29.7,29.7,29.88,NE,46,0.0,0.0,100,0.00,OVC,,0.00,2.9,WeatherDisplay:10.37,2013-12-02 15:11:00,
2013-12-02 09:16:00,29.8,29.8,29.88,ESE,105,3.5,0.0,100,0.00,OVC,,0.00,2.8,WeatherDisplay:10.37,2013-12-02 15:16:00,
2013-12-02 09:21:00,29.8,29.8,29.88,ESE,105,0.0,0.0,100,0.00,OVC,,0.00,2.9,WeatherDisplay:10.37,2013-12-02 15:21:00,
2013-12-02 09:26:00,30.0,30.0,29.88,ESE,105,0.0,0.0,100,0.00,OVC,,0.00,2.8,WeatherDisplay:10.37,2013-12-02 15:26:00,
2013-12-02 09:31:00,30.2,30.2,29.88,ESE,105,0.0,0.0,100,0.00,OVC,,0.00,2.6,WeatherDisplay:10.37,2013-12-02 15:31:00,
2013-12-02 09:36:00,30.4,30.4,29.88,ESE,105,0.0,0.0,100,0.00,OVC,,0.00,2.4,WeatherDisplay:10.37,2013-12-02 15:36:00,
2013-12-02 09:41:00,30.4,30.4,29.84,ESE,105,0.0,0.0,100,0.00,OVC,,0.00,2.5,WeatherDisplay:10.37,2013-12-02 15:41:00,
2013-12-02 09:46:00,30.7,30.7,29.84,ESE,105,0.0,0.0,100,0.00,OVC,,0.00,2.0,WeatherDisplay:10.37,2013-12-02 15:46:00,
2013-12-02 09:51:00,30.9,30.9,29.84,ESE,105,0.0,0.0,100,0.00,OVC,,0.00,1.8,WeatherDisplay:10.37,2013-12-02 15:51:00,
2013-12-02 09:56:00,30.9,30.9,29.84,ESE,105,0.0,0.0,100,0.00,OVC,,0.00,1.8,WeatherDisplay:10.37,2013-12-02 15:56:00,
2013-12-02 10:01:00,30.9,30.9,29.84,ESE,108,3.5,0.0,100,0.00,OVC,,0.00,1.9,WeatherDisplay:10.37,2013-12-02 16:01:00,
2013-12-02 10:06:00,31.1,31.1,29.84,East,86,8.1,8.1,100,0.00,OVC,,0.00,1.6,WeatherDisplay:10.37,2013-12-02 16:06:00,
2013-12-02 10:11:00,31.3,31.3,29.84,ESE,106,5.8,5.8,100,0.00,OVC,,0.00,1.3,WeatherDisplay:10.37,2013-12-02 16:11:00,
2013-12-02 10:16:00,31.6,31.6,29.84,ESE,121,8.1,8.1,100,0.00,OVC,,0.00,0.7,WeatherDisplay:10.37,2013-12-02 16:16:00,
2013-12-02 10:21:00,32.0,32.0,29.84,ESE,122,5.8,0.0,100,0.00,OVC,,0.00,0.0,WeatherDisplay:10.37,2013-12-02 16:21:00,
2013-12-02 10:26:00,32.2,32.2,29.84,ESE,122,2.3,0.0,100,0.00,OVC,,0.00,0.0,WeatherDisplay:10.37,2013-12-02 16:26:00,
2013-12-02 10:31:00,32.5,32.5,29.84,East,86,0.0,0.0,100,0.00,BKN,,0.00,0.0,WeatherDisplay:10.37,2013-12-02 16:31:00,
2013-12-02 10:36:00,32.5,32.5,29.84,SE,132,12.7,12.7,100,0.00,BKN,,0.00,0.0,WeatherDisplay:10.37,2013-12-02 16:36:00,
2013-12-02 10:41:00,32.7,32.7,29.84,East,98,12.7,12.7,100,0.00,BKN,,0.00,0.0,WeatherDisplay:10.37,2013-12-02 16:41:00,
2013-12-02 10:46:00,32.7,32.7,29.84,ESE,116,5.8,5.8,100,0.00,BKN,,0.00,0.0,WeatherDisplay:10.37,2013-12-02 16:46:00,
2013-12-02 10:51:00,32.9,32.9,29.84,East,79,5.8,5.8,100,0.00,BKN,,0.00,0.0,WeatherDisplay:10.37,2013-12-02 16:51:00,
2013-12-02 10:56:00,32.9,32.9,29.82,East,88,9.2,9.2,100,0.00,BKN,,0.00,0.0,WeatherDisplay:10.37,2013-12-02 16:56:00,
2013-12-02 11:01:00,33.1,33.1,29.82,East,100,34.5,34.5,100,0.00,BKN,,0.00,0.0,WeatherDisplay:10.37,2013-12-02 17:01:00,
2013-12-02 11:06:00,33.3,33.3,29.82,ESE,122,5.8,5.8,100,0.00,OVC,,0.00,0.0,WeatherDisplay:10.37,2013-12-02 17:06:00,
2013-12-02 11:11:00,33.3,33.3,29.82,ESE,110,9.2,9.2,100,0.00,OVC,,0.00,0.0,WeatherDisplay:10.37,2013-12-02 17:11:00,
2013-12-02 11:16:00,33.6,33.6,29.82,ESE,110,0.0,0.0,100,0.00,OVC,,0.00,0.0,WeatherDisplay:10.37,2013-12-02 17:16:00,
2013-12-02 11:21:00,33.8,33.8,29.82,ESE,107,3.6,3.6,100,0.00,OVC,,0.00,0.0,WeatherDisplay:10.37,2013-12-02 17:21:00,
2013-12-02 11:26:00,33.8,33.8,29.82,East,92,3.5,3.5,100,0.00,OVC,,0.00,0.0,WeatherDisplay:10.37,2013-12-02 17:26:00,
2013-12-02 11:31:00,34.0,34.0,29.82,ESE,105,0.0,0.0,100,0.00,BKN,,0.00,0.0,WeatherDisplay:10.37,2013-12-02 17:31:00,
2013-12-02 11:36:00,34.0,34.0,29.82,East,97,3.5,3.5,100,0.00,BKN,,0.00,0.0,WeatherDisplay:10.37,2013-12-02 17:36:00,
2013-12-02 11:41:00,34.2,34.2,29.82,South,172,23.0,0.0,100,0.00,BKN,,0.00,0.0,WeatherDisplay:10.37,2013-12-02 17:41:00,
2013-12-02 11:46:00,34.3,34.3,29.82,SW,214,3.5,0.0,100,0.00,BKN,,0.00,0.0,WeatherDisplay:10.37,2013-12-02 17:46:00,
2013-12-02 11:51:00,34.5,34.5,29.82,SSE,164,2.7,0.0,100,0.00,BKN,,0.00,0.0,WeatherDisplay:10.37,2013-12-02 17:51:00,
2013-12-02 11:56:00,34.5,34.5,29.82,ESE,116,3.5,3.5,100,0.00,BKN,,0.00,0.0,WeatherDisplay:10.37,2013-12-02 17:56:00,
2013-12-02 12:01:00,34.5,34.3,29.82,ENE,76,8.1,8.1,99,0.00,BKN,,0.00,0.0,WeatherDisplay:10.37,2013-12-02 18:01:00,
2013-12-02 12:06:00,34.7,34.2,29.82,ESE,104,0.0,0.0,98,0.00,OVC,,0.00,0.0,WeatherDisplay:10.37,2013-12-02 18:06:00,
2013-12-02 12:11:00,34.9,34.1,29.79,SSE,163,4.6,5.4,97,0.00,OVC,,0.00,0.0,WeatherDisplay:10.37,2013-12-02 18:11:00,
2013-12-02 12:16:00,35.1,34.3,29.79,ESE,113,11.5,11.5,97,0.00,OVC,,0.00,0.0,WeatherDisplay:10.37,2013-12-02 18:16:00,
2013-12-02 12:21:00,35.1,33.8,29.79,ESE,122,5.8,0.0,95,0.00,OVC,,0.00,0.0,WeatherDisplay:10.37,2013-12-02 18:21:00,
2013-12-02 12:26:00,35.2,33.7,29.79,East,81,5.8,5.8,94,0.00,OVC,,0.00,0.0,WeatherDisplay:10.37,2013-12-02 18:26:00,
2013-12-02 12:31:00,35.2,31.8,29.79,South,190,8.1,8.1,87,0.00,OVC,,0.00,0.0,WeatherDisplay:10.37,2013-12-02 18:31:00,
2013-12-02 12:36:00,35.2,32.0,29.79,ESE,120,8.1,0.0,88,0.00,OVC,,0.00,0.0,WeatherDisplay:10.37,2013-12-02 18:36:00,
2013-12-02 12:41:00,35.2,31.5,29.79,East,83,4.6,4.6,86,0.00,OVC,,0.00,0.0,WeatherDisplay:10.37,2013-12-02 18:41:00,
2013-12-02 12:46:00,35.1,31.3,29.79,ESE,113,6.3,6.3,86,0.00,OVC,,0.00,0.0,WeatherDisplay:10.37,2013-12-02 18:46:00,
2013-12-02 12:51:00,35.1,31.3,29.79,ENE,61,8.1,8.1,86,0.00,OVC,,0.00,0.0,WeatherDisplay:10.37,2013-12-02 18:51:00,
2013-12-02 12:56:00,35.1,31.3,29.79,SSE,162,4.6,0.0,86,0.00,OVC,,0.00,0.0,WeatherDisplay:10.37,2013-12-02 18:56:00,
2013-12-02 13:01:00,35.2,31.5,29.79,South,170,8.1,8.1,86,0.00,OVC,,0.00,0.0,WeatherDisplay:10.37,2013-12-02 19:01:00,
2013-12-02 13:06:00,35.2,31.5,29.79,ENE,67,5.8,5.8,86,0.00,OVC,,0.00,0.0,WeatherDisplay:10.37,2013-12-02 19:06:00,
2013-12-02 13:11:00,35.4,31.4,29.79,West,271,8.1,0.0,85,0.00,OVC,,0.00,0.0,WeatherDisplay:10.37,2013-12-02 19:11:00,
2013-12-02 13:16:00,35.4,31.1,29.79,ESE,115,5.8,0.0,84,0.00,OVC,,0.00,0.0,WeatherDisplay:10.37,2013-12-02 19:16:00,
2013-12-02 13:21:00,35.4,31.1,29.79,ESE,109,0.0,0.0,84,0.00,OVC,,0.00,0.0,WeatherDisplay:10.37,2013-12-02 19:21:00,
2013-12-02 13:26:00,35.6,30.9,29.79,ESE,105,0.0,0.0,83,0.00,OVC,,0.00,0.0,WeatherDisplay:10.37,2013-12-02 19:26:00,
2013-12-02 13:31:00,35.6,30.9,29.79,SSW,194,20.7,20.7,83,0.00,OVC,,0.00,0.0,WeatherDisplay:10.37,2013-12-02 19:31:00,
2013-12-02 13:36:00,35.8,31.1,29.79,SE,131,2.7,0.0,83,0.00,OVC,,0.00,0.0,WeatherDisplay:10.37,2013-12-02 19:36:00,
2013-12-02 13:41:00,35.8,30.8,29.76,East,90,3.5,0.0,82,0.00,OVC,,0.00,0.0,WeatherDisplay:10.37,2013-12-02 19:41:00,
2013-12-02 13:46:00,35.8,30.5,29.76,ESE,109,0.0,0.0,81,0.00,OVC,,0.00,0.0,WeatherDisplay:10.37,2013-12-02 19:46:00,
2013-12-02 13:51:00,35.8,30.5,29.76,ENE,76,0.0,0.0,81,0.00,OVC,,0.00,0.0,WeatherDisplay:10.37,2013-12-02 19:51:00,
2013-12-02 13:56:00,35.8,30.2,29.76,ESE,106,0.0,0.0,80,0.00,OVC,,0.00,0.0,WeatherDisplay:10.37,2013-12-02 19:56:00,
2013-12-02 14:01:00,35.8,29.9,29.76,SE,141,8.1,0.0,79,0.00,OVC,,0.00,0.0,WeatherDisplay:10.37,2013-12-02 20:01:00,
2013-12-02 14:06:00,35.8,29.9,29.76,East,92,0.0,0.0,79,0.00,OVC,,0.00,0.0,WeatherDisplay:10.37,2013-12-02 20:06:00,
2013-12-02 14:11:00,35.8,29.9,29.76,ESE,109,0.0,0.0,79,0.00,OVC,,0.00,0.0,WeatherDisplay:10.37,2013-12-02 20:11:00,
2013-12-02 14:16:00,35.8,29.9,29.76,ESE,109,4.6,0.0,79,0.00,OVC,,0.00,0.0,WeatherDisplay:10.37,2013-12-02 20:16:00,
2013-12-02 14:21:00,36.0,29.8,29.76,ENE,70,0.0,0.0,78,0.00,OVC,,0.00,0.0,WeatherDisplay:10.37,2013-12-02 20:21:00,
2013-12-02 14:26:00,36.0,29.4,29.73,ESE,102,0.0,0.0,77,0.00,OVC,,0.00,0.0,WeatherDisplay:10.37,2013-12-02 20:26:00,
2013-12-02 14:31:00,36.1,29.6,29.73,South,169,0.0,0.0,77,0.00,OVC,,0.00,0.0,WeatherDisplay:10.37,2013-12-02 20:31:00,
2013-12-02 14:36:00,36.1,29.6,29.73,ESE,104,0.0,0.0,77,0.00,OVC,,0.00,0.0,WeatherDisplay:10.37,2013-12-02 20:36:00,
2013-12-02 14:41:00,36.3,29.8,29.73,SE,138,0.0,0.0,77,0.00,OVC,,0.00,0.0,WeatherDisplay:10.37,2013-12-02 20:41:00,
2013-12-02 14:46:00,36.3,29.8,29.73,East,101,0.0,0.0,77,0.00,OVC,,0.00,0.0,WeatherDisplay:10.37,2013-12-02 20:46:00,
2013-12-02 14:51:00,36.5,29.7,29.73,ENE,66,0.0,0.0,76,0.00,OVC,,0.00,0.0,WeatherDisplay:10.37,2013-12-02 20:51:00,
2013-12-02 14:56:00,36.5,29.7,29.73,ESE,110,0.0,0.0,76,0.00,OVC,,0.00,0.0,WeatherDisplay:10.37,2013-12-02 20:56:00,
2013-12-02 15:01:00,36.5,29.7,29.73,East,96,0.0,0.0,76,0.00,OVC,,0.00,0.0,WeatherDisplay:10.37,2013-12-02 21:01:00,
2013-12-02 15:06:00,36.3,29.5,29.73,East,99,0.0,0.0,76,0.00,OVC,,0.00,0.0,WeatherDisplay:10.37,2013-12-02 21:06:00,
2013-12-02 15:11:00,36.1,29.3,29.73,ESE,123,0.0,0.0,76,0.00,OVC,,0.00,0.0,WeatherDisplay:10.37,2013-12-02 21:11:00,
2013-12-02 15:16:00,36.1,29.3,29.73,NE,46,0.0,0.0,76,0.00,OVC,,0.00,0.0,WeatherDisplay:10.37,2013-12-02 21:16:00,
2013-12-02 15:21:00,36.0,29.1,29.73,SSE,147,0.0,0.0,76,0.00,OVC,,0.00,0.0,WeatherDisplay:10.37,2013-12-02 21:21:00,
2013-12-02 15:26:00,35.8,29.0,29.73,ESE,108,0.0,0.0,76,0.00,OVC,,0.00,0.0,WeatherDisplay:10.37,2013-12-02 21:26:00,
2013-12-02 15:31:00,35.8,29.0,29.73,East,95,0.0,0.0,76,0.00,OVC,,0.00,0.0,WeatherDisplay:10.37,2013-12-02 21:31:00,
2013-12-02 15:36:00,35.8,29.0,29.73,ESE,116,0.0,0.0,76,0.00,OVC,,0.00,0.0,WeatherDisplay:10.37,2013-12-02 21:36:00,
2013-12-02 15:41:00,35.8,29.0,29.73,East,101,0.0,0.0,76,0.00,OVC,,0.00,0.0,WeatherDisplay:10.37,2013-12-02 21:41:00,
2013-12-02 15:46:00,35.6,28.8,29.73,ESE,118,0.0,0.0,76,0.00,OVC,,0.00,0.0,WeatherDisplay:10.37,2013-12-02 21:46:00,
2013-12-02 15:51:00,35.6,28.8,29.73,East,80,0.0,0.0,76,0.00,OVC,,0.00,0.0,WeatherDisplay:10.37,2013-12-02 21:51:00,
2013-12-02 15:56:00,35.4,28.9,29.73,East,98,0.0,0.0,77,0.00,OVC,,0.00,0.0,WeatherDisplay:10.37,2013-12-02 21:56:00,
2013-12-02 16:01:00,35.4,28.9,29.73,East,98,0.0,0.0,77,0.00,OVC,,0.00,0.0,WeatherDisplay:10.37,2013-12-02 22:01:00,
2013-12-02 16:06:00,35.2,28.8,29.73,ESE,117,0.0,0.0,77,0.00,OVC,,0.00,0.0,WeatherDisplay:10.37,2013-12-02 22:06:00,
2013-12-02 16:11:00,35.1,28.6,29.73,SE,124,0.0,0.0,77,0.00,OVC,,0.00,0.0,WeatherDisplay:10.37,2013-12-02 22:11:00,
2013-12-02 16:16:00,34.9,28.7,29.73,East,101,0.0,0.0,78,0.00,OVC,,0.00,0.0,WeatherDisplay:10.37,2013-12-02 22:16:00,
2013-12-02 16:21:00,34.9,28.7,29.73,ESE,104,4.6,0.0,78,0.00,OVC,,0.00,0.0,WeatherDisplay:10.37,2013-12-02 22:21:00,
2013-12-02 16:26:00,34.7,28.5,29.73,ESE,115,0.0,0.0,78,0.00,OVC,,0.00,0.0,WeatherDisplay:10.37,2013-12-02 22:26:00,
2013-12-02 16:31:00,34.5,28.4,29.73,ESE,105,2.3,0.0,78,0.00,OVC,,0.00,0.0,WeatherDisplay:10.37,2013-12-02 22:31:00,
2013-12-02 16:36:00,34.5,28.7,29.73,ESE,112,0.0,0.0,79,0.00,OVC,,0.00,0.0,WeatherDisplay:10.37,2013-12-02 22:36:00,
2013-12-02 16:41:00,34.3,28.5,29.73,ESE,107,0.0,0.0,79,0.00,OVC,,0.00,0.0,WeatherDisplay:10.37,2013-12-02 22:41:00,
2013-12-02 16:46:00,34.3,28.5,29.73,East,83,0.0,0.0,79,0.00,OVC,,0.00,0.0,WeatherDisplay:10.37,2013-12-02 22:46:00,
2013-12-02 16:51:00,34.3,28.5,29.73,East,89,0.0,0.0,79,0.00,OVC,,0.00,0.0,WeatherDisplay:10.37,2013-12-02 22:51:00,
2013-12-02 16:56:00,34.3,28.5,29.73,ESE,111,0.0,0.0,79,0.00,OVC,,0.00,0.0,WeatherDisplay:10.37,2013-12-02 22:56:00,
2013-12-02 17:01:00,34.2,28.3,29.73,East,87,0.0,0.0,79,0.00,OVC,,0.00,0.0,WeatherDisplay:10.37,2013-12-02 23:01:00,
2013-12-02 17:06:00,34.2,28.3,29.73,ENE,72,0.0,0.0,79,0.00,OVC,,0.00,0.0,WeatherDisplay:10.37,2013-12-02 23:06:00,
2013-12-02 17:11:00,34.2,28.3,29.73,ESE,115,0.0,0.0,79,0.00,OVC,,0.00,0.0,WeatherDisplay:10.37,2013-12-02 23:11:00,
2013-12-02 17:16:00,34.2,28.3,29.73,ESE,120,0.0,0.0,79,0.00,OVC,,0.00,0.0,WeatherDisplay:10.37,2013-12-02 23:16:00,
2013-12-02 17:21:00,34.2,28.3,29.73,ESE,107,0.0,0.0,79,0.00,OVC,,0.00,0.0,WeatherDisplay:10.37,2013-12-02 23:21:00,
2013-12-02 17:26:00,34.3,28.5,29.73,East,94,0.0,0.0,79,0.00,OVC,,0.00,0.0,WeatherDisplay:10.37,2013-12-02 23:26:00,
2013-12-02 17:31:00,34.3,28.2,29.73,ESE,111,0.0,0.0,78,0.00,OVC,,0.00,0.0,WeatherDisplay:10.37,2013-12-02 23:31:00,
2013-12-02 17:36:00,34.3,28.2,29.73,SSE,147,0.0,0.0,78,0.00,OVC,,0.00,0.0,WeatherDisplay:10.37,2013-12-02 23:36:00,
2013-12-02 17:41:00,34.3,28.2,29.73,ESE,117,0.0,0.0,78,0.00,OVC,,0.00,0.0,WeatherDisplay:10.37,2013-12-02 23:41:00,
2013-12-02 17:46:00,34.3,27.9,29.73,East,98,0.0,0.0,77,0.00,OVC,,0.00,0.0,WeatherDisplay:10.37,2013-12-02 23:46:00,
2013-12-02 17:51:00,34.3,27.9,29.73,ESE,122,0.0,0.0,77,0.00,OVC,,0.00,0.0,WeatherDisplay:10.37,2013-12-02 23:51:00,
2013-12-02 17:56:00,34.3,27.9,29.73,ESE,118,0.0,0.0,77,0.00,OVC,,0.00,0.0,WeatherDisplay:10.37,2013-12-02 23:56:00,
2013-12-02 18:01:00,34.3,27.9,29.73,East,88,0.0,0.0,77,0.00,OVC,,0.00,0.0,WeatherDisplay:10.37,2013-12-03 00:01:00,
2013-12-02 18:06:00,34.3,27.6,29.73,ESE,122,0.0,0.0,76,0.00,OVC,,0.00,0.0,WeatherDisplay:10.37,2013-12-03 00:06:00,
2013-12-02 18:11:00,34.3,27.6,29.73,SE,126,0.0,0.0,76,0.00,OVC,,0.00,0.0,WeatherDisplay:10.37,2013-12-03 00:11:00,
2013-12-02 18:16:00,34.2,27.4,29.73,ENE,75,0.0,0.0,76,0.00,OVC,,0.00,0.0,WeatherDisplay:10.37,2013-12-03 00:16:00,
2013-12-02 18:21:00,34.2,27.4,29.73,East,98,0.0,0.0,76,0.00,OVC,,0.00,0.0,WeatherDisplay:10.37,2013-12-03 00:21:00,
2013-12-02 18:26:00,34.0,27.2,29.73,East,92,0.0,0.0,76,0.00,OVC,,0.00,0.0,WeatherDisplay:10.37,2013-12-03 00:26:00,
2013-12-02 18:31:00,34.0,27.2,29.73,East,97,0.0,0.0,76,0.00,OVC,,0.00,0.0,WeatherDisplay:10.37,2013-12-03 00:31:00,
2013-12-02 18:36:00,33.8,27.4,29.73,East,88,0.0,0.0,77,0.00,OVC,,0.00,0.0,WeatherDisplay:10.37,2013-12-03 00:36:00,
2013-12-02 18:41:00,33.8,27.4,29.73,ESE,104,0.0,0.0,77,0.00,OVC,,0.00,0.0,WeatherDisplay:10.37,2013-12-03 00:41:00,
2013-12-02 18:46:00,33.8,27.4,29.73,East,97,0.0,0.0,77,0.00,OVC,,0.00,0.0,WeatherDisplay:10.37,2013-12-03 00:46:00,
2013-12-02 18:51:00,33.8,27.4,29.73,ESE,106,0.0,0.0,77,0.00,OVC,,0.00,0.0,WeatherDisplay:10.37,2013-12-03 00:51:00,
2013-12-02 18:56:00,33.6,27.5,29.73,East,99,0.0,0.0,78,0.00,OVC,,0.00,0.0,WeatherDisplay:10.37,2013-12-03 00:56:00,
2013-12-02 19:01:00,33.6,27.5,29.73,East,93,0.0,0.0,78,0.00,OVC,,0.00,0.0,WeatherDisplay:10.37,2013-12-03 01:01:00,
2013-12-02 19:06:00,33.6,27.5,29.73,NE,51,0.0,0.0,78,0.00,OVC,,0.00,0.0,WeatherDisplay:10.37,2013-12-03 01:06:00,
2013-12-02 19:11:00,33.6,27.5,29.73,East,86,0.0,0.0,78,0.00,OVC,,0.00,0.0,WeatherDisplay:10.37,2013-12-03 01:11:00,
2013-12-02 19:16:00,33.6,27.8,29.73,East,94,0.0,0.0,79,0.00,OVC,,0.00,0.0,WeatherDisplay:10.37,2013-12-03 01:16:00,
2013-12-02 19:21:00,33.4,27.6,29.73,ESE,108,0.0,0.0,79,0.00,OVC,,0.00,0.0,WeatherDisplay:10.37,2013-12-03 01:21:00,
2013-12-02 19:26:00,33.4,27.6,29.73,East,90,0.0,0.0,79,0.00,OVC,,0.00,0.0,WeatherDisplay:10.37,2013-12-03 01:26:00,
2013-12-02 19:31:00,33.4,27.6,29.73,ESE,123,0.0,0.0,79,0.00,OVC,,0.00,0.0,WeatherDisplay:10.37,2013-12-03 01:31:00,
2013-12-02 19:36:00,33.4,27.6,29.73,East,88,0.0,0.0,79,0.00,OVC,,0.00,0.0,WeatherDisplay:10.37,2013-12-03 01:36:00,
2013-12-02 19:41:00,33.3,27.5,29.73,ESE,109,0.0,0.0,79,0.00,OVC,,0.00,0.0,WeatherDisplay:10.37,2013-12-03 01:41:00,
2013-12-02 19:46:00,33.3,27.5,29.73,SE,128,0.0,0.0,79,0.00,OVC,,0.00,0.0,WeatherDisplay:10.37,2013-12-03 01:46:00,
2013-12-02 19:51:00,33.3,27.5,29.73,ESE,102,0.0,0.0,79,0.00,OVC,,0.00,0.0,WeatherDisplay:10.37,2013-12-03 01:51:00,
2013-12-02 19:56:00,33.3,27.5,29.73,ENE,70,0.0,0.0,79,0.00,OVC,,0.00,0.0,WeatherDisplay:10.37,2013-12-03 01:56:00,
2013-12-02 20:01:00,33.3,27.5,29.73,ENE,77,0.0,0.0,79,0.00,OVC,,0.00,0.0,WeatherDisplay:10.37,2013-12-03 02:01:00,
2013-12-02 20:06:00,33.1,27.3,29.73,East,79,0.0,0.0,79,0.00,OVC,,0.00,0.0,WeatherDisplay:10.37,2013-12-03 02:06:00,
2013-12-02 20:11:00,33.1,27.6,29.73,ESE,113,0.0,0.0,80,0.00,OVC,,0.00,0.0,WeatherDisplay:10.37,2013-12-03 02:11:00,
2013-12-02 20:16:00,33.1,27.6,29.73,ESE,108,0.0,0.0,80,0.00,OVC,,0.00,0.0,WeatherDisplay:10.37,2013-12-03 02:16:00,
2013-12-02 20:21:00,33.1,27.6,29.73,ENE,61,0.0,0.0,80,0.00,OVC,,0.00,0.0,WeatherDisplay:10.37,2013-12-03 02:21:00,
2013-12-02 20:26:00,33.1,27.6,29.73,ENE,74,0.0,0.0,80,0.00,OVC,,0.00,0.0,WeatherDisplay:10.37,2013-12-03 02:26:00,
2013-12-02 20:31:00,33.1,27.9,29.73,ESE,107,0.0,0.0,81,0.00,OVC,,0.00,0.0,WeatherDisplay:10.37,2013-12-03 02:31:00,
2013-12-02 20:36:00,33.1,27.9,29.73,East,87,0.0,0.0,81,0.00,OVC,,0.00,0.0,WeatherDisplay:10.37,2013-12-03 02:36:00,
2013-12-02 20:41:00,32.9,27.7,29.73,ESE,115,0.0,0.0,81,0.00,OVC,,0.00,0.0,WeatherDisplay:10.37,2013-12-03 02:41:00,
2013-12-02 20:46:00,32.9,28.0,29.73,ENE,69,0.0,0.0,82,0.00,OVC,,0.00,0.0,WeatherDisplay:10.37,2013-12-03 02:46:00,
2013-12-02 20:51:00,32.9,28.0,29.73,ESE,103,0.0,0.0,82,0.00,OVC,,0.00,0.0,WeatherDisplay:10.37,2013-12-03 02:51:00,
2013-12-02 20:56:00,32.9,28.3,29.73,ESE,118,0.0,0.0,83,0.00,OVC,,0.00,0.0,WeatherDisplay:10.37,2013-12-03 02:56:00,
2013-12-02 21:01:00,32.9,28.3,29.73,SSE,147,0.0,0.0,83,0.00,-SN,,0.00,0.0,WeatherDisplay:10.37,2013-12-03 03:01:00,
2013-12-02 21:06:00,32.7,28.1,29.73,ESE,122,0.0,0.0,83,0.00,-SN,,0.00,0.0,WeatherDisplay:10.37,2013-12-03 03:06:00,
2013-12-02 21:11:00,32.7,28.1,29.73,East,98,0.0,0.0,83,0.00,-SN,,0.00,0.0,WeatherDisplay:10.37,2013-12-03 03:11:00,
2013-12-02 21:16:00,32.7,28.4,29.73,East,100,0.0,0.0,84,0.00,-SN,,0.00,0.0,WeatherDisplay:10.37,2013-12-03 03:16:00,
2013-12-02 21:21:00,32.7,28.4,29.73,ESE,103,0.0,0.0,84,0.00,-SN,,0.00,0.0,WeatherDisplay:10.37,2013-12-03 03:21:00,
2013-12-02 21:26:00,32.7,28.4,29.73,East,87,0.0,0.0,84,0.00,-SN,,0.00,0.0,WeatherDisplay:10.37,2013-12-03 03:26:00,
2013-12-02 21:31:00,32.7,28.7,29.73,SE,128,4.0,0.0,85,0.00,-SN,,0.00,0.0,WeatherDisplay:10.37,2013-12-03 03:31:00,
2013-12-02 21:36:00,32.7,28.7,29.73,ESE,102,0.0,0.0,85,0.00,-SN,,0.00,0.0,WeatherDisplay:10.37,2013-12-03 03:36:00,
2013-12-02 21:41:00,32.7,28.7,29.73,East,88,0.0,0.0,85,0.00,-SN,,0.00,0.0,WeatherDisplay:10.37,2013-12-03 03:41:00,
2013-12-02 21:46:00,32.7,29.0,29.73,East,85,0.0,0.0,86,0.00,-SN,,0.00,0.0,WeatherDisplay:10.37,2013-12-03 03:46:00,
2013-12-02 21:51:00,32.7,29.3,29.73,ENE,70,0.0,0.0,87,0.00,-SN,,0.00,0.0,WeatherDisplay:10.37,2013-12-03 03:51:00,
2013-12-02 21:56:00,32.7,29.3,29.73,ENE,66,0.0,0.0,87,0.00,-SN,,0.00,0.0,WeatherDisplay:10.37,2013-12-03 03:56:00,
2013-12-02 22:01:00,32.5,29.4,29.73,ESE,106,0.0,0.0,88,0.00,-SN,,0.00,0.0,WeatherDisplay:10.37,2013-12-03 04:01:00,
2013-12-02 22:06:00,32.5,29.7,29.73,East,85,0.0,0.0,89,0.00,-SN,,0.00,0.0,WeatherDisplay:10.37,2013-12-03 04:06:00,
2013-12-02 22:11:00,32.4,29.8,29.73,East,101,0.0,0.0,90,0.00,-SN,,0.00,0.0,WeatherDisplay:10.37,2013-12-03 04:11:00,
2013-12-02 22:16:00,32.2,29.6,29.73,ESE,106,0.0,0.0,90,0.00,-SN,,0.00,0.0,WeatherDisplay:10.37,2013-12-03 04:16:00,
2013-12-02 22:21:00,32.2,29.8,29.73,East,92,36.8,0.0,91,0.00,-SN,,0.00,0.0,WeatherDisplay:10.37,2013-12-03 04:21:00,
2013-12-02 22:26:00,32.0,29.9,29.73,ESE,112,33.4,33.4,92,0.00,-SN,,0.00,0.0,WeatherDisplay:10.37,2013-12-03 04:26:00,
2013-12-02 22:31:00,31.8,30.0,29.73,SE,126,0.0,0.0,93,0.00,-SN,,0.00,0.0,WeatherDisplay:10.37,2013-12-03 04:31:00,
2013-12-02 22:36:00,31.8,30.3,29.73,East,89,0.0,0.0,94,0.00,-SN,,0.00,0.0,WeatherDisplay:10.37,2013-12-03 04:36:00,
2013-12-02 22:41:00,31.6,30.4,29.73,ESE,104,5.8,5.8,95,0.00,-SN,,0.00,0.0,WeatherDisplay:10.37,2013-12-03 04:41:00,
2013-12-02 22:46:00,31.6,30.4,29.73,NE,54,77.1,77.1,95,0.00,-SN,,0.00,0.0,WeatherDisplay:10.37,2013-12-03 04:46:00,
2013-12-02 22:51:00,31.6,30.6,29.73,ESE,105,4.6,0.0,96,0.00,OVC,,0.00,0.0,WeatherDisplay:10.37,2013-12-03 04:51:00,
2013-12-02 22:56:00,31.6,30.6,29.73,East,81,9.2,9.2,96,0.00,OVC,,0.00,0.0,WeatherDisplay:10.37,2013-12-03 04:56:00,
2013-12-02 23:01:00,31.8,31.1,29.73,SE,126,2.3,0.0,97,0.00,OVC,,0.00,0.0,WeatherDisplay:10.37,2013-12-03 05:01:00,
2013-12-02 23:06:00,31.8,31.1,29.73,ESE,115,19.6,0.0,97,0.00,OVC,,0.00,0.0,WeatherDisplay:10.37,2013-12-03 05:06:00,
2013-12-02 23:11:00,31.8,31.3,29.73,SE,132,0.0,0.0,98,0.00,OVC,,0.00,0.0,WeatherDisplay:10.37,2013-12-03 05:11:00,
2013-12-02 23:16:00,31.8,31.3,29.73,ESE,118,32.2,32.2,98,0.00,OVC,,0.00,0.0,WeatherDisplay:10.37,2013-12-03 05:16:00,
2013-12-02 23:21:00,31.8,31.3,29.73,East,82,49.5,49.5,98,0.00,OVC,,0.00,0.0,WeatherDisplay:10.37,2013-12-03 05:21:00,
2013-12-02 23:26:00,31.8,31.6,29.73,East,96,71.3,71.3,99,0.00,OVC,,0.00,0.0,WeatherDisplay:10.37,2013-12-03 05:26:00,
2013-12-02 23:31:00,32.0,31.8,29.73,SE,131,0.0,0.0,99,0.00,OVC,,0.00,0.0,WeatherDisplay:10.37,2013-12-03 05:31:00,
2013-12-02 23:36:00,32.0,32.0,29.73,ESE,115,6.9,0.0,100,0.00,OVC,,0.00,0.0,WeatherDisplay:10.37,2013-12-03 05:36:00,
2013-12-02 23:41:00,32.0,32.0,29.70,SE,126,4.6,4.6,100,0.00,OVC,,0.00,0.0,WeatherDisplay:10.37,2013-12-03 05:41:00,
2013-12-02 23:46:00,32.0,32.0,29.70,ESE,115,5.8,0.0,100,0.00,OVC,,0.00,0.0,WeatherDisplay:10.37,2013-12-03 05:46:00,
2013-12-02 23:51:00,32.0,32.0,29.70,ESE,115,58.7,0.0,100,0.00,OVC,,0.00,0.0,WeatherDisplay:10.37,2013-12-03 05:51:00,
2013-12-02 23:56:00,32.2,32.2,29.70,ESE,122,3.5,0.0,100,0.00,OVC,,0.00,0.0,WeatherDisplay:10.37,2013-12-03 05:56:00,